Weather History for Poplar Bluff, MO

Change the Weather History Date:

Friday, November 30, 2012

  Actual Average Record
Temperature  
Mean Temperature 46 °F -  
Max Temperature 60 °F 51 °F 75 °F (1933)
Min Temperature 32 °F 33 °F 9 °F (1929)
Degree Days  
Heating Degree Days 19    
Moisture  
Dew Point 39 °F    
Average Humidity 74    
Maximum Humidity 93    
Minimum Humidity 53    
Precipitation  
Precipitation 0.00 in - - ()
Sea Level Pressure  
Sea Level Pressure 30.18 in    
Wind  
Wind Speed 4 mph (SSW)    
Max Wind Speed 13 mph    
Max Gust Speed -    
Visibility 10 miles    
Events      
Averages and records for this station are not official NWS values.
T = Trace of Precipitation, MM = Missing Value Source: NWS Daily Summary

Daily Weather History Graph

Daily Weather History Graph

Search for Another Location

Airport:

Trip Planner

Search our weather history database for the weather conditions in past years. The results will help you decide how hot, cold, wet, or windy it might be!

Date:

Astronomy

Nov. 30, 2012 Rise Set
Actual Time 6:54 AM CST 4:45 PM CST
Civil Twilight 6:26 AM CST 5:13 PM CST
Nautical Twilight 5:54 AM CST 5:45 PM CST
Astronomical Twilight 5:23 AM CST 6:17 PM CST
Moon 6:39 PM CST (11/30) 8:27 AM CST (11/30)
Length of Visible Light 10h 47m
Length of Day
9h 50m
Waning Gibbous, 96% of the Moon is Illuminated
Nov 30
Waning Gibbous
Dec 6
Last Quarter
Dec 13
New
Dec 19
First Quarter
Dec 28
Full

Hourly Weather History & Observations

Time (CST) Temp. Windchill Dew Point Humidity Pressure Visibility Wind Dir Wind Speed Gust Speed Precip Events Conditions
12:53 AM 43.0 °F 39.5 °F 30.0 °F 60% 30.20 in 10.0 mi SSW 5.8 mph - N/A   Clear
1:53 AM 42.1 °F 38.4 °F 30.0 °F 62% 30.20 in 10.0 mi South 5.8 mph - N/A   Clear
2:53 AM 36.0 °F - 28.9 °F 76% 30.22 in 10.0 mi Calm Calm - N/A   Clear
3:53 AM 33.1 °F - 28.9 °F 85% 30.22 in 10.0 mi Calm Calm - N/A   Clear
4:53 AM 32.0 °F - 28.0 °F 85% 30.21 in 10.0 mi Calm Calm - N/A   Clear
6:53 AM 32.0 °F - 28.0 °F 85% 30.22 in 10.0 mi Calm Calm - N/A   Clear
7:53 AM 35.1 °F - 30.9 °F 85% 30.22 in 10.0 mi Calm Calm - N/A   Clear
8:53 AM 46.0 °F 41.4 °F 36.0 °F 68% 30.22 in 10.0 mi SSW 9.2 mph - N/A   Clear
9:53 AM 50.0 °F - 37.0 °F 61% 30.23 in 10.0 mi SSW 6.9 mph - N/A   Clear
10:53 AM 55.0 °F - 39.0 °F 55% 30.21 in 10.0 mi SSW 12.7 mph - N/A   Clear
11:53 AM 55.9 °F - 39.0 °F 53% 30.18 in 10.0 mi SSW 9.2 mph - N/A   Overcast
12:53 PM 57.9 °F - 41.0 °F 53% 30.15 in 10.0 mi SSW 12.7 mph - N/A   Overcast
1:53 PM 57.9 °F - 42.1 °F 56% 30.13 in 10.0 mi SSW 10.4 mph - N/A   Overcast
2:53 PM 60.1 °F - 44.1 °F 55% 30.14 in 10.0 mi SSW 10.4 mph - N/A   Clear
3:53 PM 57.9 °F - 45.0 °F 62% 30.14 in 10.0 mi SSW 4.6 mph - N/A   Clear
4:53 PM 54.0 °F - 45.0 °F 72% 30.14 in 10.0 mi SSW 5.8 mph - N/A   Partly Cloudy
5:53 PM 52.0 °F - 45.0 °F 77% 30.15 in 10.0 mi SSW 5.8 mph - N/A   Partly Cloudy
6:53 PM 52.0 °F - 45.0 °F 77% 30.16 in 10.0 mi Calm Calm - N/A   Partly Cloudy
7:34 PM 50.0 °F - 44.6 °F 82% 30.15 in 10.0 mi Calm Calm - N/A   Mostly Cloudy
7:53 PM 48.0 °F - 44.1 °F 86% 30.17 in 10.0 mi Calm Calm - N/A   Overcast
8:51 PM 48.2 °F - 44.6 °F 87% 30.15 in 9.0 mi Calm Calm - N/A   Scattered Clouds
8:53 PM 48.0 °F - 44.1 °F 86% 30.16 in 8.0 mi Calm Calm - N/A   Partly Cloudy
9:53 PM 46.0 °F - 43.0 °F 89% 30.16 in 7.0 mi Calm Calm - N/A   Mostly Cloudy
10:06 PM 46.4 °F - 44.6 °F 93% 30.16 in 7.0 mi Calm Calm - N/A   Overcast
10:38 PM 48.2 °F - 44.6 °F 87% 30.17 in 8.0 mi Calm Calm - N/A   Overcast
10:53 PM 48.9 °F - 45.0 °F 86% 30.17 in 8.0 mi SE 6.9 mph - N/A   Overcast
11:53 PM 55.0 °F - 48.0 °F 77% 30.16 in 9.0 mi SSW 4.6 mph - N/A   Overcast